Location: Kavul?ru
(16.6288°N, 80.5832°E)
Time: 08:15:17
(UTC+00:00)

ARIANE 5 R/B - Pass Details

Date: 15 May 2026
Orbit: 519 x 17421 km, 6.8° (Epoch: 5 June)

Event Time Altitude Azimuth Distance (km) Brightness Sun altitude
Exits shadow 22:17:43 11° 145° (SE) 1,728 3.9 -24.5°
Drops below altitude 10° 22:17:54 10° 142° (SE) 1,781 4.0 -24.4°
Sets 22:20:06 0° 123° (ESE) 2,636 5.2 -24.0°
